• en France
  • Liste des pays
  • À 7 jours
  • Température de l'eau
  • Carte satellitaire
  • Carte météo
  • Widgets météo
  • user-avatar
    Se connecter

    Météo par heure à Kurcevo

    Ce jour, 18 Juillet, Mercredi

    Heure Température Précipitation Vent Pression Humidité
    00:00 +20°C° 0 mm 3 m/s 751 mmHg 74%
    01:00 +20°C° 0 mm 3 m/s 751 mmHg 76%
    02:00 +19°C° 0 mm 3 m/s 751 mmHg 79%
    03:00 +19°C° 0 mm 3 m/s 751 mmHg 81%
    04:00 +19°C° 0 mm 3 m/s 751 mmHg 83%
    05:00 +19°C° 0 mm 3 m/s 751 mmHg 84%
    06:00 +20°C° 0 mm 3 m/s 751 mmHg 79%
    07:00 +22°C° 0 mm 3 m/s 751 mmHg 75%
    08:00 +25°C° 0 mm 4 m/s 751 mmHg 68%
    09:00 +26°C° 0 mm 4 m/s 751 mmHg 61%
    10:00 +27°C° 0 mm 5 m/s 751 mmHg 55%
    11:00 +28°C° 0 mm 5 m/s 751 mmHg 48%
    12:00 +29°C° 0 mm 5 m/s 750 mmHg 47%
    13:00 +29°C° 0 mm 5 m/s 750 mmHg 46%
    14:00 +29°C° 0 mm 5 m/s 750 mmHg 45%
    15:00 +29°C° 0 mm 5 m/s 750 mmHg 47%
    16:00 +29°C° 0 mm 4 m/s 750 mmHg 49%
    17:00 +29°C° 0 mm 4 m/s 750 mmHg 51%
    18:00 +27°C° 0,1 mm 4 m/s 750 mmHg 60%
    19:00 +25°C° 0,1 mm 3 m/s 750 mmHg 68%
    20:00 +22°C° 0,1 mm 3 m/s 750 mmHg 76%
    21:00 +21°C° 0,3 mm 3 m/s 750 mmHg 80%
    22:00 +20°C° 0,3 mm 3 m/s 750 mmHg 85%
    23:00 +19°C° 0,3 mm 2 m/s 750 mmHg 90%

    Demain, 19 Juillet, Jeudi

    Heure Température Précipitation Vent Pression Humidité
    00:00 +19°C° 0,5 mm 3 m/s 750 mmHg 91%
    01:00 +19°C° 0,5 mm 3 m/s 750 mmHg 93%
    02:00 +19°C° 0,5 mm 3 m/s 750 mmHg 94%
    03:00 +19°C° 0,5 mm 3 m/s 750 mmHg 95%
    04:00 +19°C° 0,5 mm 3 m/s 750 mmHg 95%
    05:00 +19°C° 0,5 mm 3 m/s 750 mmHg 96%
    06:00 +19°C° 0,9 mm 4 m/s 750 mmHg 96%
    07:00 +19°C° 0,9 mm 4 m/s 750 mmHg 96%
    08:00 +19°C° 0,9 mm 4 m/s 750 mmHg 95%
    09:00 +20°C° 0,6 mm 4 m/s 750 mmHg 91%
    10:00 +21°C° 0,6 mm 4 m/s 750 mmHg 87%
    11:00 +23°C° 0,6 mm 4 m/s 750 mmHg 82%
    12:00 +23°C° 0,9 mm 4 m/s 749 mmHg 83%
    13:00 +25°C° 0,9 mm 4 m/s 749 mmHg 83%
    14:00 +25°C° 0,9 mm 4 m/s 749 mmHg 84%
    15:00 +25°C° 0,9 mm 4 m/s 749 mmHg 84%
    16:00 +25°C° 0,9 mm 4 m/s 749 mmHg 84%
    17:00 +25°C° 0,9 mm 4 m/s 749 mmHg 83%
    18:00 +24°C° 0,2 mm 3 m/s 749 mmHg 86%
    19:00 +22°C° 0,2 mm 3 m/s 749 mmHg 89%
    20:00 +21°C° 0,2 mm 3 m/s 749 mmHg 91%
    21:00 +20°C° 0 mm 3 m/s 749 mmHg 93%
    22:00 +19°C° 0 mm 2 m/s 749 mmHg 95%
    23:00 +19°C° 0 mm 2 m/s 749 mmHg 96%

    Après-demain, 20 Juillet, Vendredi

    Heure Température Précipitation Vent Pression Humidité
    00:00 +18°C° 0 mm 2 m/s 749 mmHg 96%
    01:00 +18°C° 0 mm 2 m/s 749 mmHg 96%
    02:00 +18°C° 0 mm 2 m/s 749 mmHg 96%
    03:00 +18°C° 0 mm 2 m/s 749 mmHg 96%
    04:00 +18°C° 0 mm 2 m/s 749 mmHg 96%
    05:00 +18°C° 0 mm 2 m/s 749 mmHg 95%
    06:00 +19°C° 0 mm 3 m/s 749 mmHg 91%
    07:00 +20°C° 0 mm 3 m/s 749 mmHg 87%
    08:00 +22°C° 0 mm 3 m/s 749 mmHg 83%
    09:00 +22°C° 0,1 mm 3 m/s 749 mmHg 82%
    10:00 +24°C° 0,1 mm 3 m/s 749 mmHg 80%
    11:00 +24°C° 0,1 mm 3 m/s 749 mmHg 79%
    12:00 +25°C° 0,3 mm 3 m/s 748 mmHg 77%
    13:00 +25°C° 0,3 mm 3 m/s 748 mmHg 76%
    14:00 +26°C° 0,3 mm 3 m/s 748 mmHg 74%
    15:00 +26°C° 0,2 mm 3 m/s 748 mmHg 73%
    16:00 +26°C° 0,2 mm 3 m/s 748 mmHg 72%
    17:00 +26°C° 0,2 mm 3 m/s 748 mmHg 71%
    18:00 +25°C° 0,1 mm 2 m/s 748 mmHg 77%
    19:00 +24°C° 0,1 mm 2 m/s 748 mmHg 83%
    20:00 +23°C° 0,1 mm 1 m/s 748 mmHg 89%
    21:00 +22°C° 0 mm 1 m/s 748 mmHg 92%
    22:00 +21°C° 0 mm 1 m/s 748 mmHg 94%
    23:00 +20°C° 0 mm 1 m/s 748 mmHg 96%

    21 Juillet, Samedi

    Heure Température Précipitation Vent Pression Humidité
    00:00 +19°C° 0 mm 1 m/s 748 mmHg 97%
    01:00 +19°C° 0 mm 1 m/s 748 mmHg 97%
    02:00 +19°C° 0 mm 1 m/s 748 mmHg 97%
    03:00 +19°C° 0 mm 1 m/s 748 mmHg 98%
    04:00 +19°C° 0 mm 1 m/s 748 mmHg 98%
    05:00 +19°C° 0 mm 1 m/s 748 mmHg 98%
    06:00 +20°C° 0 mm 1 m/s 748 mmHg 93%
    07:00 +22°C° 0 mm 1 m/s 748 mmHg 89%
    08:00 +23°C° 0 mm 1 m/s 748 mmHg 84%
    09:00 +24°C° 0,3 mm 1 m/s 748 mmHg 81%
    10:00 +25°C° 0,3 mm 1 m/s 747 mmHg 77%
    11:00 +26°C° 0,3 mm 1 m/s 747 mmHg 74%
    12:00 +27°C° 0,6 mm 1 m/s 747 mmHg 72%
    13:00 +27°C° 0,6 mm 1 m/s 747 mmHg 70%
    14:00 +28°C° 0,6 mm 1 m/s 746 mmHg 69%
    15:00 +27°C° 1 mm 1 m/s 746 mmHg 72%
    16:00 +27°C° 1 mm 2 m/s 746 mmHg 75%
    17:00 +27°C° 1 mm 2 m/s 746 mmHg 78%
    18:00 +26°C° 0,9 mm 2 m/s 746 mmHg 82%
    19:00 +24°C° 0,9 mm 2 m/s 746 mmHg 87%
    20:00 +23°C° 0,9 mm 1 m/s 746 mmHg 92%
    21:00 +23°C° 0,1 mm 2 m/s 747 mmHg 93%
    22:00 +21°C° 0,1 mm 2 m/s 747 mmHg 94%
    23:00 +20°C° 0,1 mm 2 m/s 747 mmHg 95%

    22 Juillet, Dimanche

    Heure Température Précipitation Vent Pression Humidité
    00:00 +20°C° 0,1 mm 2 m/s 747 mmHg 96%
    01:00 +20°C° 0,1 mm 2 m/s 747 mmHg 96%
    02:00 +19°C° 0,1 mm 2 m/s 747 mmHg 97%
    03:00 +19°C° 0,3 mm 2 m/s 747 mmHg 97%
    04:00 +19°C° 0,3 mm 2 m/s 747 mmHg 96%
    05:00 +19°C° 0,3 mm 2 m/s 747 mmHg 96%
    06:00 +20°C° 0,5 mm 2 m/s 747 mmHg 94%
    07:00 +20°C° 0,5 mm 3 m/s 747 mmHg 91%
    08:00 +21°C° 0,5 mm 3 m/s 747 mmHg 89%
    09:00 +22°C° 0 mm 3 m/s 747 mmHg 83%
    10:00 +24°C° 0 mm 3 m/s 747 mmHg 78%
    11:00 +25°C° 0 mm 3 m/s 747 mmHg 72%
    12:00 +26°C° 0,1 mm 3 m/s 747 mmHg 70%
    13:00 +27°C° 0,1 mm 3 m/s 747 mmHg 67%
    14:00 +28°C° 0,1 mm 3 m/s 747 mmHg 65%
    15:00 +27°C° 0,3 mm 3 m/s 747 mmHg 67%
    16:00 +27°C° 0,3 mm 3 m/s 747 mmHg 69%
    17:00 +27°C° 0,3 mm 3 m/s 747 mmHg 72%
    18:00 +26°C° 0,1 mm 3 m/s 748 mmHg 77%
    19:00 +24°C° 0,1 mm 2 m/s 748 mmHg 82%
    20:00 +23°C° 0,1 mm 2 m/s 748 mmHg 88%
    21:00 +21°C° 0 mm 2 m/s 748 mmHg 90%
    22:00 +20°C° 0 mm 2 m/s 749 mmHg 93%
    23:00 +19°C° 0 mm 2 m/s 749 mmHg 95%

    23 Juillet, Lundi

    Heure Température Précipitation Vent Pression Humidité
    00:00 +19°C° 0 mm 2 m/s 749 mmHg 95%
    01:00 +18°C° 0 mm 2 m/s 749 mmHg 95%
    02:00 +18°C° 0 mm 2 m/s 750 mmHg 94%
    03:00 +17°C° 0 mm 2 m/s 750 mmHg 92%
    04:00 +17°C° 0 mm 2 m/s 750 mmHg 89%
    05:00 +16°C° 0 mm 3 m/s 750 mmHg 87%
    06:00 +18°C° 0 mm 3 m/s 750 mmHg 81%
    07:00 +19°C° 0 mm 3 m/s 750 mmHg 75%
    08:00 +20°C° 0 mm 3 m/s 750 mmHg 69%
    09:00 +22°C° 0 mm 3 m/s 750 mmHg 64%
    10:00 +25°C° 0 mm 3 m/s 750 mmHg 60%
    11:00 +26°C° 0 mm 4 m/s 750 mmHg 55%
    12:00 +27°C° 0 mm 4 m/s 750 mmHg 54%
    13:00 +28°C° 0 mm 4 m/s 750 mmHg 52%
    14:00 +28°C° 0 mm 4 m/s 750 mmHg 51%
    15:00 +28°C° 0,1 mm 4 m/s 750 mmHg 53%
    16:00 +28°C° 0,1 mm 4 m/s 750 mmHg 55%
    17:00 +27°C° 0,1 mm 4 m/s 750 mmHg 57%
    18:00 +26°C° 0 mm 3 m/s 750 mmHg 63%
    19:00 +24°C° 0 mm 3 m/s 750 mmHg 70%
    20:00 +21°C° 0 mm 2 m/s 750 mmHg 76%
    21:00 +21°C° 0 mm 2 m/s 751 mmHg 75%
    22:00 +20°C° 0 mm 2 m/s 751 mmHg 75%
    23:00 +19°C° 0 mm 2 m/s 751 mmHg 75%
    Voir plus